SQ3KKR-15 Weather Reports


time (UTC)temp
F
wind
direction
speed
knots
gust
knots
rain 1hr
in
rain 24hr
in
rain mn
in
humidity
%
barometer
mb
20210730104306 77 0.0 0.0 0.00 0.00 0.00 33 1006.0
20210730103306 77 0.0 0.0 0.00 0.00 0.00 33 1006.1
20210730101306 78 0.0 0.0 0.00 0.00 0.00 33 1006.3
20210730100306 78 0.0 0.0 0.00 0.00 0.00 33 1006.4
20210730091306 74 0.0 0.0 0.00 0.00 0.00 40 1006.9
20210730081306 70 0.0 0.0 0.00 0.00 0.00 47 1007.0
20210730073306 68 0.0 0.0 0.00 0.00 0.00 51 1007.4
20210730070306 66 0.0 0.0 0.00 0.00 0.00 52 1007.5
20210730062306 65 0.0 0.0 0.00 0.00 0.00 52 1007.6
20210730061306 65 0.0 0.0 0.00 0.00 0.00 52 1007.6
20210730055306 65 0.0 0.0 0.00 0.00 0.00 51 1007.6
20210730051305 65 0.0 0.0 0.00 0.00 0.00 50 1007.7
20210730041305 59 0.0 0.0 0.00 0.00 0.00 62 1007.7
20210730034305 56 0.0 0.0 0.00 0.00 0.00 63 1007.8
20210730031305 56 0.0 0.0 0.00 0.00 0.00 62 1007.7
20210730024305 57 0.0 0.0 0.00 0.00 0.00 61 1007.7
20210730023305 57 0.0 0.0 0.00 0.00 0.00 60 1007.7
20210730021305 57 0.0 0.0 0.00 0.00 0.00 60 1007.6
20210730014305 57 0.0 0.0 0.00 0.00 0.00 60 1007.6
20210730012306 58 0.0 0.0 0.00 0.00 0.00 59 1007.8
20210730011305 58 0.0 0.0 0.00 0.00 0.00 59 1007.9
20210730004305 58 0.0 0.0 0.00 0.00 0.00 58 1007.8
20210730002306 60 0.0 0.0 0.00 0.00 0.00 58 1007.8
20210729234305 60 0.0 0.0 0.00 0.00 0.00 54 1007.9
20210729233305 61 0.0 0.0 0.00 0.00 0.00 53 1007.9
20210729232306 62 0.0 0.0 0.00 0.00 0.00 54 1007.9
20210729231305 62 0.0 0.0 0.00 0.00 0.00 53 1007.9
20210729230305 62 0.0 0.0 0.00 0.00 0.00 52 1008.0
20210729223305 64 0.0 0.0 0.00 0.00 0.00 46 1007.8
20210729222305 64 0.0 0.0 0.00 0.00 0.00 46 1007.8
20210729220305 64 0.0 0.0 0.00 0.00 0.00 48 1007.7
20210729215306 64 0.0 0.0 0.00 0.00 0.00 49 1007.7
20210729214305 64 0.0 0.0 0.00 0.00 0.00 49 1007.7
20210729213305 65 0.0 0.0 0.00 0.00 0.00 47 1007.7
20210729212305 66 0.0 0.0 0.00 0.00 0.00 46 1007.7
20210729201305 69 0.0 0.0 0.00 0.00 0.00 40 1007.3
20210729200305 70 0.0 0.0 0.00 0.00 0.00 40 1007.3
20210729195306 70 0.0 0.0 0.00 0.00 0.00 39 1007.2
20210729194304 71 0.0 0.0 0.00 0.00 0.00 39 1007.1
20210729192306 71 0.0 0.0 0.00 0.00 0.00 38 1007.1
20210729191304 72 0.0 0.0 0.00 0.00 0.00 37 1006.9
20210729190305 73 0.0 0.0 0.00 0.00 0.00 37 1006.9
20210729184304 74 0.0 0.0 0.00 0.00 0.00 35 1006.7
20210729182305 75 0.0 0.0 0.00 0.00 0.00 34 1006.7
20210729181304 76 0.0 0.0 0.00 0.00 0.00 33 1006.7
20210729180304 77 0.0 0.0 0.00 0.00 0.00 32 1006.6
20210729175305 78 0.0 0.0 0.00 0.00 0.00 31 1006.6
20210729173304 82 0.0 0.0 0.00 0.00 0.00 29 1006.4
20210729172306 83 0.0 0.0 0.00 0.00 0.00 28 1006.3
20210729171304 83 0.0 0.0 0.00 0.00 0.00 28 1006.3
20210729165306 83 0.0 0.0 0.00 0.00 0.00 28 1006.4
20210729164304 83 0.0 0.0 0.00 0.00 0.00 28 1006.4
20210729163304 81 0.0 0.0 0.00 0.00 0.00 29 1006.3
20210729161304 82 0.0 0.0 0.00 0.00 0.00 28 1006.4
20210729160304 81 0.0 0.0 0.00 0.00 0.00 30 1006.2
20210729154304 81 0.0 0.0 0.00 0.00 0.00 31 1006.3
20210729153304 80 0.0 0.0 0.00 0.00 0.00 31 1006.4
20210729152305 80 0.0 0.0 0.00 0.00 0.00 31 1006.3
20210729150304 79 0.0 0.0 0.00 0.00 0.00 32 1006.3
20210729144304 80 0.0 0.0 0.00 0.00 0.00 32 1006.5
20210729143304 81 0.0 0.0 0.00 0.00 0.00 32 1006.5
20210729142305 83 0.0 0.0 0.00 0.00 0.00 30 1006.6
20210729141304 83 0.0 0.0 0.00 0.00 0.00 30 1006.6
20210729140304 83 0.0 0.0 0.00 0.00 0.00 30 1006.6
20210729132306 83 0.0 0.0 0.00 0.00 0.00 30 1006.5
20210729130304 83 0.0 0.0 0.00 0.00 0.00 31 1006.5
20210729122305 81 0.0 0.0 0.00 0.00 0.00 34 1006.6
20210729114303 81 0.0 0.0 0.00 0.00 0.00 34 1007.1
20210729113303 83 0.0 0.0 0.00 0.00 0.00 32 1007.0
20210729112306 84 0.0 0.0 0.00 0.00 0.00 31 1007.0
20210729111303 84 0.0 0.0 0.00 0.00 0.00 31 1006.9
20210729110303 82 0.0 0.0 0.00 0.00 0.00 33 1006.9
20210729105305 81 0.0 0.0 0.00 0.00 0.00 34 1007.1